User: anonymous   Login
Location: Unspecified
(0.0000°N, 0.0000°E)
Time: 13:47:18
(UTC+00:00)
Language:

COSMOS 2429 - Orbit

View from above orbital plane
View from above orbital plane
View from above satellite
View from above satellite

Ground track
Ground track

The orbit data is extracted from the following two-line orbital elements,

1 32052U 07038A   17114.66012088 +.00000070 +00000-0 +57233-4 0  9996
2 32052 082.9790 147.2086 0037981 199.9488 160.0186 13.74887147482593
Epoch (UTC): 24 April 2017 15:50:34
Eccentricity: 0.0037981
inclination: 82.9790°
perigee height: 954 km
apogee height: 1010 km
right ascension of ascending node: 147.2086°
argument of perigee: 199.9488°
revolutions per day: 13.74887147
mean anomaly at epoch: 160.0186°
orbit number at epoch: 48259

The dashed part of the orbit path shows where the satellite is in the earth's shadow,  

DLR